Flag for Germany Weather past 2 weeks in Gera, Thuringia, Germany

Now
35 °F

Overcast.


Feels Like: 27 °F
Forecast: 36 / 45 °F
Wind: 9 mph from South

Location: Gera-Leumnitz

Current Time: Mar 1, 2015 at 6:22:21 AM

Latest Report: Mar 1, 2015 at 6:00 AM


Visibility: 13 mi

Pressure: 29.82 "Hg

Humidity: 78%

Dew point: 28 °F

Location of GeraLocation

Historic Weather in Gera — Graph

°F

Gera temperature yesterday

Maximum temperature yesterday: 42 °F (at 4:00 PM)
Minimum temperature yesterday: 33 °F (at 4:00 AM)
Average temperature yesterday: 36 °F

Past Weeks' High & Low Weather Summary

 TemperatureHumidityPressure
High47 °F (Feb 27, 3:00 PM)98% (Feb 28, 4:00 AM)30.77 "Hg (Feb 28, 4:00 AM)
Low24 °F (Feb 15, 6:00 AM)38% (Feb 27, 4:00 PM)29.44 "Hg (Feb 21, 1:00 PM)
Average35 °F79%30.04 "Hg
* Reported Feb 14 5:00 AM — Mar 1 5:00 AM, Gera, Weather by CustomWeather, © 2015

Note: Actual official high and low records may vary slightly from our data, if they occured in-between our weather recording intervals... More about our weather records

Advertising

Gera weather history for previous 24 hours

 ConditionsComfort  
Time TempWeatherWind HumidityBarometerVisibility
5:00 AM
Sun, Mar 1
33 °FOvercast.9 mph81%29.85 "Hg11 mi
4:00 AM33 °FOvercast.8 mph83%29.88 "Hg11 mi
3:00 AM33 °FOvercast.8 mph81%29.91 "Hg14 mi
2:00 AM33 °FPassing clouds.6 mph81%29.96 "Hg17 mi
1:00 AM33 °FPassing clouds.6 mph81%29.98 "Hg16 mi
12:00 AM34 °FClear.6 mph79%30.00 "Hg16 mi
11:00 PM
Sat, Feb 28
34 °FPassing clouds.5 mph76%30.02 "Hg18 mi
10:00 PM34 °FOvercast.5 mph75%30.05 "Hg17 mi
9:00 PM34 °FPassing clouds.3 mph72%30.06 "Hg19 mi
8:00 PM34 °FPassing clouds.3 mph69%30.08 "Hg31 mi
7:00 PM35 °FPassing clouds.3 mph73%30.10 "Hg31 mi
6:00 PM40 °FPassing clouds.3 mph59%30.09 "Hg34 mi
5:00 PM41 °FScattered clouds.5 mph57%30.09 "Hg37 mi
4:00 PM42 °FPassing clouds.5 mph55%30.10 "Hg25 mi
3:00 PM41 °FScattered clouds.3 mph58%30.11 "Hg25 mi
2:00 PM40 °FScattered clouds.5 mph58%30.13 "Hg25 mi
1:00 PM40 °FPartly sunny.5 mph62%30.14 "Hg25 mi
12:00 PM38 °FPartly sunny.3 mph70%30.17 "Hg22 mi
11:00 AM36 °FPartly sunny.2 mph77%30.17 "Hg22 mi
10:00 AM36 °FOvercast.2 mph82%30.18 "Hg14 mi
9:00 AM34 °FOvercast.2 mph90%30.19 "Hg11 mi
8:00 AM33 °FOvercast.2 mph92%30.18 "Hg14 mi
7:00 AM33 °FFog.3 mph96%30.16 "Hg4 mi
6:00 AM33 °FOvercast.2 mph97%30.14 "Hg6 mi
Weather by CustomWeather, © 2015

See weather overviewHow to use our weather pages